This demonstration page uses our WeatherBlox Daily Observations layout. Learn more.

Left ArrowRight Arrow

39.01783, -85.05884

Hourly Observations for August 5, 2016

Temp ( °F °C ) Dew Point ( °F °C ) Humidity (%) Winds ( mph kmh ) Pressure ( in mb ) Visibility ( mi km ) Precip ( " mm )
12:52 am 00:52 Clear 73 22.8 72 22.2 96 96 S 3 6 29.94 1014 7 11 N/A
1:52 am 01:52 Clear 74 23.3 72 22.2 94 94 SSW 6 9 29.93 1014 7 11 N/A
2:52 am 02:52 Mostly Clear with Mist and Fog 71 21.7 71 21.7 100 100 S 3 6 29.91 1013 6 10 N/A
3:52 am 03:52 Mostly Clear with Mist and Fog 72 22 72 22 100 100 SSW 6 9 29.91 1013 5 8 N/A
4:52 am 04:52 Mostly Clear with Mist and Fog 73 22.8 71 21.7 94 94 N N/A 29.89 1012 6 10 N/A
5:52 am 05:52 Partly Cloudy with Mist and Fog 71 21.7 70 21.1 96 96 N N/A 29.90 1013 5 8 N/A
6:52 am 06:52 Mostly Cloudy with Patchy Fog 70 21.1 70 21.1 100 100 SSE 3 6 29.91 1013 4 6 N/A
7:52 am 07:52 Partly Cloudy with Mist and Fog 73 22.8 72 22.2 96 96 N N/A 29.92 1013 6 10 N/A
8:52 am 08:52 Partly Cloudy 75 23.9 73 22.8 94 94 SW 6 9 29.93 1014 7 11 N/A
9:06 am 09:06 Mostly Cloudy 75 24 73 23 94 94 S 7 11 29.94 1014 7 11 N/A
9:33 am 09:33 Mostly Cloudy 75 24 73 23 94 94 S 7 11 29.94 1014 7 11 N/A
9:41 am 09:41 Partly Cloudy 75 24 73 23 94 94 SSW 5 7 29.94 1014 8 13 N/A
9:52 am 09:52 Mostly Sunny 75 24 73 23 94 94 SSW 5 7 29.94 1014 10 16 N/A
10:52 am 10:52 Partly Cloudy 81 27 73 23 79 79 VRB 3 6 29.91 1013 10 16 N/A
11:52 am 11:52 Mostly Sunny 84 28.9 72 22.2 67 67 VRB 3 6 29.93 1014 8 13 N/A
12:52 pm 12:52 Partly Cloudy 86 30 72 22.2 63 63 W 7 11 29.92 1013 10 16 N/A
1:52 pm 13:52 Mostly Cloudy 88 31.1 73 22.8 61 61 SW 7 11 29.90 1013 10 16 N/A
2:52 pm 14:52 Mostly Cloudy 88 31.1 73 22.8 61 61 W 7 11 29.89 1012 9 14 N/A
3:52 pm 15:52 Mostly Cloudy 87 30.6 72 22.2 61 61 S 3 6 29.87 1012 9 14 N/A
4:52 pm 16:52 Mostly Cloudy 86 30 71 21.7 61 61 WSW 5 7 29.87 1012 8 13 N/A
5:52 pm 17:52 Mostly Cloudy with Light Rain 82 27.8 76 24.4 82 82 W 9 15 29.86 1011 8 13 N/A
6:52 pm 18:52 Hazy 82 27.8 75 23.9 79 79 W 7 11 29.86 1011 5 8 N/A
7:52 pm 19:52 Partly Cloudy 82 27.8 75 23.9 79 79 N N/A 29.85 1011 8 13 N/A
8:52 pm 20:52 Partly Cloudy 80 26.7 75 23.9 85 85 N N/A 29.86 1011 8 13 N/A
9:52 pm 21:52 Partly Cloudy 78 25.6 76 24.4 93 93 SSW 6 9 29.88 1012 8 13 N/A
10:52 pm 22:52 Mostly Clear with Mist and Fog 77 25 76 24.4 96 96 SSW 5 7 29.87 1012 5 8 N/A
11:52 pm 23:52 Partly Cloudy with Mist and Fog 77 25 75 23.9 94 94 N N/A 29.88 1012 6 10 N/A

Powered by AerisWeather